Regional Weather Roundup
Issued by NWS

Home | Current Version | Previous Version | Graphics & Text | Print | Product List | Glossary On
Versions: 1 2 3 4 5 6 7 8 9 10 11 12 13 14 15 16 17 18 19 20 21 22 23 24 25 26 27
000
ASUS45 KSLC 290610
RWRUT

UTAH REGIONAL WEATHER ROUNDUP
NATIONAL WEATHER SERVICE SALT LAKE CITY UT
1200 AM MDT SAT APR 29 2017

UTZ001>011-023>025-290700-

NORTHERN UTAH

CITY           SKY/WX    TMP DP  RH WIND       PRES   REMARKS
BRIGHAM CITY   CLOUDY    44  26  48 CALM      30.06S
HILL AFB       PTCLDY    39  23  52 E15       30.04S WCI  31
LOGAN          CLOUDY    41  33  73 S13       30.07R
OGDEN          CLOUDY    40  28  62 NE15      30.04R WCI  32
SALT LAKE CITY MOCLDY    41  35  79 N7        30.03S
TOOELE VALLEY  CLOUDY    41  36  81 N9        30.04S
WENDOVER       CLOUDY    47  21  35 N14       30.09R
HEBER CITY     MOCLDY    36  23  60 N14G20    30.00R WCI  27
WEST JORDAN    PTCLDY    39  39  97 N7        30.04R WCI  34

$$

UTZ011>015-024>027-290700-

CENTRAL/NORTHEAST UTAH

CITY           SKY/WX    TMP DP  RH WIND       PRES   REMARKS
PROVO AIRPORT  MOCLDY    39  32  76 NE9       30.01R WCI  33
MOAB/CANYONLAN PTCLDY    40  26  57 W5        29.84F
DELTA          MOCLDY    39  30  70 N12       30.01F WCI  32
PRICE          CLOUDY    35  26  69 N6        29.92R WCI  30
RICHFIELD      CLOUDY    37  34  87 CALM      30.03S
ROOSEVELT      CLOUDY    37  32  81 W7        29.96S WCI  32
VERNAL         CLOUDY    39  24  55 N15G22    29.95R WCI  31

$$

UTZ013>016-019>022-027-290700-

SOUTHERN UTAH

CITY           SKY/WX    TMP DP  RH WIND       PRES   REMARKS
BRYCE CANYON   PTCLDY    27  19  72 NW12      29.95S WCI  17
CEDAR CITY     PTCLDY    35  24  64 N12       30.00S WCI  27
MILFORD        CLOUDY    41  27  57 NE12      30.01S
HANKSVILLE     MOCLDY    45  21  39 N9        29.91R
KANAB          CLEAR     43  19  39 N12       29.98S
BLANDING       PTCLDY    37  21  54 NW14G20   29.90S WCI  28

$$

REGIONAL REPORTS     COLORADO/ARIZONA

CITY           SKY/WX    TMP DP  RH WIND       PRES   REMARKS
CRAIG, CO      CLOUDY    34  28  79 NE6       29.91R WCI  29
GRAND JUNCTION CLOUDY    38  27  64 SW3       29.84S
RIFLE, CO      CLOUDY    37  29  72 CALM      29.86R
MONTROSE, CO   LGT SNOW  36  28  73 E9G20     29.87R WCI  29
CORTEZ, CO     CLOUDY    36  26  67 CALM      29.83S
COLORADO CITY    N/A     43  21  42 W8        29.98S
PAGE, AZ       CLEAR     47  21  35 W7        29.88S
GRAND CANYON   CLEAR     32  13  45 N3        29.92S
KINGMAN, AZ    CLEAR     48  32  53 N12       29.93S
FLAGSTAFF, AZ  CLEAR     30  10  43 CALM      29.88S

$$

REGIONAL REPORTS    NEVADA/IDAHO/WYOMING

CITY           SKY/WX    TMP DP  RH WIND       PRES   REMARKS
LAS VEGAS, NV  CLEAR     61  12  14 N16       29.96R
ELY, NY        MOCLDY    30  19  63 NW9       30.09S WCI  22
ELKO, NV       CLEAR     35  23  61 CALM      30.16R
POCATELLO, ID  CLOUDY    34  28  79 NW10      30.10R WCI  26
BURLEY, ID     CLOUDY    41  29  62 W12G22    30.09R
FORT BRIDGER,  CLOUDY    28  27  93 E9        30.09R WCI  20
EVANSTON, WY   CLOUDY    26  23  88 NE10      30.04S WCI  16
ROCK SPRINGS,  CLOUDY    29  22  75 NE17G26   30.05R WCI  17

$$




USA.gov is the U.S. government's official web portal to all federal, state and local government web resources and services.